Starlink 5820

operational
NORAD ID: 55781 Int'l Des: 2023-028 Owner: SPXS Country: US Constellation: starlink
LEOCIRCULAR

Über Starlink 5820

Beschreibung wird geladen...

Live-Position

3D-Globus wird geladen...

Nächste Überflüge

Höhenverlauf

Altitude vs Time

uPlot chart will show altitude changes over time

Zweizeiliger Elementsatz

1 55781U 23028AS 25353.49895097 -.00000675 00000-0 -48775-4 0 9995
2 55781 70.0006 66.5862 0002991 270.8967 89.1850 14.98339391154522
Epoch: 19. Dez. 2025 • Age: 12 hours

Aktueller Status

Höhe 575.0 km
Geschwindigkeit 7.58 km/s
Subsatellitenpunkt 21.37°N, 150.02°E
Startdatum 3. März 2023
Alter 2.7 years
Typ internet

Technische Details

Klassifizierung Payload
Masse 305.00 kg
Trockenmasse 290.00 kg
Gesamtmasse 305.00 kg
Länge 0.20 m
Durchmesser 2.80 m
Spannweite 9.00 m
Form Box + pan
Hersteller SPXS
Bus-Typ Starlink
Phasenstatus In Orbit
Besitzer/Staat SPXS/US

Große Konstellationen

Loading constellations...